This demonstration page uses our WeatherBlox Daily Observations layout. Learn more.

Left ArrowRight Arrow

Hourly Observations for September 20, 2019

Temp ( °F °C ) Dew Point ( °F °C ) Humidity (%) Winds ( mph kmh ) Pressure ( in mb ) Visibility ( mi km ) Precip ( " mm )
12:51 am 00:51 Clear 73 22.8 43 6.1 34 34 SSW 5 7 29.69 1005 10 16 0.00 0.00
1:51 am 01:51 Clear 70 21.1 45 7.2 41 41 ESE 6 9 29.70 1006 10 16 0.00 0.00
2:51 am 02:51 Clear 67 19.4 43 6.1 42 42 NNE 5 7 29.70 1006 10 16 0.00 0.00
3:51 am 03:51 Clear 66 18.9 43 6.1 43 43 E 3 6 29.71 1006 10 16 0.00 0.00
4:51 am 04:51 Clear 64 17.8 44 6.7 48 48 Calm 29.72 1007 10 16 0.00 0.00
5:51 am 05:51 Clear 62 16.7 44 6.7 52 52 NNE 5 7 29.75 1007 10 16 0.00 0.00
6:51 am 06:51 Sunny 66 18.9 46 7.8 49 49 Calm 29.78 1008 10 16 0.00 0.00
7:51 am 07:51 Sunny 75 23.9 45 7.2 34 34 Calm 29.78 1009 10 16 0.00 0.00
8:51 am 08:51 Sunny 81 27.2 44 6.7 27 27 VRB 3 6 29.79 1009 10 16 0.00 0.00
9:51 am 09:51 Sunny 83 28.3 43 6.1 24 24 Calm 29.78 1009 10 16 0.00 0.00
10:51 am 10:51 Sunny 86 30 40 4.4 20 20 Calm 29.77 1008 10 16 0.00 0.00
11:51 am 11:51 Sunny 91 32.8 39 3.9 16 16 NNE 8 13 29.75 1007 10 16 0.00 0.00
12:51 pm 12:51 Sunny 93 33.9 39 3.9 15 15 WNW 10 17 29.73 1007 10 16 0.00 0.00
1:51 pm 13:51 Sunny 93 33.9 39 3.9 15 15 VRB 3 6 29.71 1006 10 16 0.00 0.00
2:51 pm 14:51 Sunny 94 34.4 37 2.8 14 14 NW 9 15 29.69 1005 10 16 0.00 0.00
3:51 pm 15:51 Sunny 93 33.9 37 2.8 14 14 W 9 15 29.68 1005 10 16 0.00 0.00
4:51 pm 16:51 Sunny 94 34.4 36 2.2 13 13 W 14 22 29.67 1005 10 16 0.00 0.00
5:51 pm 17:51 Sunny 90 32.2 34 1.1 14 14 W 14 22 29.69 1005 10 16 0.00 0.00
6:51 pm 18:51 Clear 86 30 37 2.8 18 18 W 10 17 29.70 1006 10 16 0.00 0.00
7:51 pm 19:51 Clear 82 27.8 40 4.4 22 22 NW 10 17 29.71 1006 10 16 0.00 0.00
8:51 pm 20:51 Clear 81 27.2 38 3.3 21 21 NW 10 17 29.72 1007 10 16 0.00 0.00
9:51 pm 21:51 Clear 79 26.1 36 2.2 21 21 NW 10 17 29.74 1007 10 16 0.00 0.00
10:51 pm 22:51 Clear 77 25 37 2.8 24 24 NW 9 15 29.74 1007 10 16 0.00 0.00
11:51 pm 23:51 Clear 76 24.4 37 2.8 24 24 NNW 8 13 29.75 1007 10 16 0.00 0.00

Powered by AerisWeather